Regional Weather Roundup
Issued by NWS

Home | Current Version | Previous Version | Text Only | Print | Product List | Glossary On
Versions: 1 2 3 4 5 6 7 8 9 10 11 12 13 14 15 16 17 18 19 20 21 22 23 24 25 26 27 28 29 30 31 32 33 34 35 36 37 38 39 40 41 42 43 44 45 46 47 48 49 50
630
ASUS45 KPSR 221300
RWRAZ

ARIZONA HOURLY REGIONAL WEATHER ROUNDUP
NATIONAL WEATHER SERVICE PHOENIX AZ
600 AM MST FRI MAY 22 2015

NOTE: FAIR INDICATES FEW OR NO CLOUDS BELOW 12,000 FEET WITH NO
SIGNIFICANT WEATHER AND/OR OBSTRUCTIONS TO VISIBILITY.

AZZ001>003-036-221400-
NORTHWEST ARIZONA

CITY           SKY/WX    TMP DP  RH WIND       PRES   REMARKS
KINGMAN        CLOUDY    56  32  40 SE10      29.89R
$$

AZZ004>008-015-016-018-221400-
NORTH CENTRAL ARIZONA

CITY           SKY/WX    TMP DP  RH WIND       PRES   REMARKS
GRAND CANYON   PTCLDY    31  28  89 CALM      30.02S
WILLIAMS       PTCLDY    37  27  65 SE8       30.08S WCI  31
PRESCOTT       PTCLDY    49  38  65 SE9       29.97R
FLAGSTAFF      NOT AVBL
PAYSON         PTCLDY    50  25  37 CALM      30.01R
$$

AZZ009>014-017-221400-
NORTHEAST ARIZONA

CITY           SKY/WX    TMP DP  RH WIND       PRES   REMARKS
WINSLOW        NOT AVBL
SAINT JOHNS    CLOUDY    49  26  41 NE3       30.03S
WINDOW ROCK    CLOUDY    39  32  76 CALM      30.09R
$$

AZZ023-221400-
GREATER PHOENIX AREA

CITY           SKY/WX    TMP DP  RH WIND       PRES   REMARKS
PHOENIX        MOCLDY    67  40  37 E7        29.86S
GLENDALE       MOCLDY    66  39  37 SW5       29.88
LUKE AFB       MOCLDY    66  42  40 SW3       29.87R
DEER VALLEY    CLEAR     63  36  36 SE3       29.88R
SCOTTSDALE     CLEAR     65  37  35 CALM      29.90R
MESA-GATEWAY   MOCLDY    63  39  42 S6        29.90S
CHANDLER       MOCLDY    63  43  48 VRB5      29.89
$$

AZZ027-028-221400-
SOUTHWEST MARICOPA COUNTY AND PINAL COUNTY

CITY           SKY/WX    TMP DP  RH WIND       PRES   REMARKS
CASA GRANDE    CLOUDY    64  41  42 CALM      29.89R
GILA BEND      FAIR      63  40  42 W6        29.88R HAZE
$$

AZZ503-504-507>509-221400-
SOUTHEAST ARIZONA

CITY           SKY/WX    TMP DP  RH WIND       PRES   REMARKS
TUCSON         PTCLDY    54  27  35 SE7       29.96R
DAVIS-MONTHAN  MOCLDY    53  29  39 SE8       29.94R
RYAN FIELD       N/A     57  30  35 SE6       29.95
NOGALES        CLEAR     47  20  34 CALM      30.00R
SIERRA VISTA   CLEAR     54  20  26 SE2       30.02R
SAFFORD        CLEAR     54  29  38 E7        29.94S
$$

AZZ020-021-025-026-031-221400-
SOUTHWEST ARIZONA

CITY           SKY/WX    TMP DP  RH WIND       PRES   REMARKS
YUMA           PTCLDY    63  41  44 NW10      29.90R
$$

CAZ031-033-041-043-047-048-061-221400-
SOUTHERN CALIFORNIA

CITY           SKY/WX    TMP DP  RH WIND       PRES   REMARKS
DOWNTOWN L.A.  CLOUDY    58  52  80 CALM      29.98R
L.A. AIRPORT   MOCLDY    57  51  80 W15       29.99R
SAN DIEGO      MOCLDY    60  48  64 W8        30.03R
BURBANK        CLOUDY    57  48  72 CALM      29.97S
ONTARIO        CLOUDY    56  48  74 W7        29.98S
RIVERSIDE      CLOUDY    57  48  72 W8        29.99R
PALM SPRINGS   MOCLDY    64  41  42 NW10G17   29.87S
EL CENTRO NAS  PTCLDY    63  41  44 SW29G37   29.92R
IMPERIAL       CLEAR     62  42  47 W21G29    29.89R
BLYTHE         CLEAR     61  45  55 S8        29.85R
$$

NVZ020-UTZ003-221400-
SOUTHERN NEVADA-UTAH

CITY           SKY/WX    TMP DP  RH WIND       PRES   REMARKS
LAS VEGAS      NOT AVBL
SALT LAKE CITY MOCLDY    52  44  74 S7        29.91R
$$

NMZ009-TXZ055-221400-
NEW MEXICO-WEST TEXAS

CITY           SKY/WX    TMP DP  RH WIND       PRES   REMARKS
ALBUQUERQUE    PTSUNNY   50  44  80 N3        30.12R
EL PASO        PTSUNNY   59  52  77 N7        30.06R
$$


........................KEY........................
SKY/WX - SKY CONDITION/WEATHER
TMP    - TEMPERATURE IN FAHRENHEIT
DP     - DEW POINT IN FAHRENHEIT
RH     - RELATIVE HUMIDITY IN PERCENT
WIND   - DIRECTION AND SPEED IN MILES PER HOUR (MPH)
VRB    - VARIABLE WIND DIRECTION
PRES   - MEAN SEA LEVEL PRESSURE IN INCHES OF MERCURY
         F - FALLING PRESSURE   R - RISING PRESSURE
         S - STEADY PRESSURE
VSB    - VISIBILITY IN MILES
HX     - HEAT INDEX IN FAHRENHEIT
WCI    - WIND CHILL INDEX IN FAHRENHEIT
TC     - TEMPERATURE IN CELSIUS WHICH IS ALSO KNOWN AS
         TEMPERATURE IN CENTIGRADE
AFB    - AIR FORCE BASE
         LUKE AFB IS LUKE AIR FORCE BASE
         DAVIS-MONTHAN IS DAVIS-MONTHAN AIR FORCE BASE
NAS    - NAVAL AIR STATION
         EL CENTRO NAS IS EL CENTRO NAVAL AIR STATION
N/A    - NOT AVAILABLE




USA.gov is the U.S. government's official web portal to all federal, state and local government web resources and services.